Regional Weather Roundup
Issued by NWS

Home | Current Version | Previous Version | Text Only | Print | Product List | Glossary On
Versions: 1 2 3 4 5 6 7 8 9 10 11 12 13 14 15 16 17 18 19 20 21 22 23 24 25 26 27 28 29 30 31 32 33 34 35 36 37 38 39 40 41 42 43 44 45 46 47 48 49 50
000
ASUS44 KMEG 221910
RWRTN
TENNESSEE HOURLY STATE WEATHER ROUNDUP
NATIONAL WEATHER SERVICE MEMPHIS TN
200 PM CDT FRI SEP 22 2017

TNZ002-004-019-021-049-052-054-088>092-222000-
WEST TENNESSEE

CITY           SKY/WX    TMP DP  RH WIND       PRES   REMARKS
MEMPHIS INTL   MOSUNNY   91  65  41 CALM      30.02F HX  93
NWS MEMPHIS      N/A     90 N/A N/A MISG        N/A
JACKSON        SUNNY     89  68  49 CALM      30.03F HX  93
DYERSBURG      SUNNY     90  68  48 E6        30.03F HX  94
SOMERVILLE     PTSUNNY   86  70  58 CALM      30.02F HX  90
COVINGTON      SUNNY     90  68  48 CALM      30.02F HX  93
BOLIVAR        MOSUNNY   90  68  48 NE6       30.02F HX  93
PARIS          MOSUNNY   88  66  48 SE5       30.03F HX  90
HUNTINGDON     MOSUNNY   88  66  48 VRB3      30.03F HX  90
LEXINGTON      SUNNY     88  68  51 N5        30.03F HX  91
SAVANNAH       MOSUNNY   88  70  55 VRB5      30.01F HX  92
$$

TNZ008-025-027-028-033-062-065-066-222000-
NORTH MIDDLE TENNESSEE

CITY           SKY/WX    TMP DP  RH WIND       PRES   REMARKS
NASHVILLE      MOSUNNY   88  63  43 S3        30.04F
PORTLAND       SUNNY     86  68  54 NE8       30.04F
CLARKSVILLE    PTSUNNY   89  65  44 E6        30.04F HX  91
SMYRNA         MOSUNNY   86  66  51 NW3       30.05F
COOKEVILLE     SUNNY     86  64  48 CALM      30.05F
GALLATIN       SUNNY     88  64  45 CALM      30.06F
CROSSVILLE     PTSUNNY   84  63  49 NE3       30.11F
$$

TNZ061-075-076-078-094-096-097-222000-
SOUTH MIDDLE TENNESSEE

CITY           SKY/WX    TMP DP  RH WIND       PRES   REMARKS
FAYETTEVILLE   SUNNY     86  66  51 CALM      30.04F
TULLAHOMA      MOSUNNY   88  63  42 VRB3      30.07S
WINCHESTER     SUNNY     88  66  48 SW5       30.05S HX  90
MCMINNVILLE    SUNNY     88  70  55 CALM      30.06S HX  92
COLUMBIA       MOSUNNY   88 N/A N/A VRB5      30.01F
SHELBYVILLE    SUNNY     86  66  51 NE5       30.04F
$$

TNZ017-018-042-046-047-222000-
NORTHEAST TENNESSEE

CITY           SKY/WX    TMP DP  RH WIND       PRES   REMARKS
TRI CITIES     PTSUNNY   87  62  43 VRB3      30.09F
ELIZABETHTON   SUNNY     86  63  45 W5        30.08F
$$

TNZ012-013-036-069-073-074-222000-
CENTRAL EAST TENNESSEE

CITY           SKY/WX    TMP DP  RH WIND       PRES   REMARKS
KNOXVILLE      PTSUNNY   87  64  46 NW8       30.05F
OAK RIDGE      MOSUNNY   88  63  43 W3        30.07F
DOWNTOWN KNOXV SUNNY     88  66  48 VRB6      30.04F HX  90
GATLINBURG     SUNNY     88  57  35 NE8       30.05S
MORRISTOWN     MOSUNNY   86  63  45 CALM      30.06F
JACKSBORO      SUNNY     86  66  51 E6        30.10F
$$

TNZ083-085-099-222000-
SOUTHEAST TENNESSEE

CITY           SKY/WX    TMP DP  RH WIND       PRES   REMARKS
CHATTANOOGA    MOSUNNY   88  66  48 CALM      30.04F HX  90
DAYTON         CLEAR     88  70  55 W3        30.04F HX  92
$$

SKY/WX REPORTED AS FAIR MEANS FEW OR NO CLOUDS BELOW
12 THOUSAND FEET.




USA.gov is the U.S. government's official web portal to all federal, state and local government web resources and services.